Location: Brunembert
(50.7122°N, 1.8935°E)
Time: 04:02:42
(UTC+00:00)

Cosmos 2026 Rocket - Pass Details

Date: 22 April 2021
Orbit: 938 x 1002 km, 82.9° (Epoch: 06 May)

Event Time Altitude Azimuth Distance (km) Brightness Sun altitude
Rises 19:29:28 0° 349° (N) 3,615 7.6 -5.2°
Reaches altitude 10° 19:31:57 10° 350° (N) 2,669 6.9 -5.6°
Maximum altitude 19:38:03 87° 265° (W) 955 4.1 -6.4°
Drops below altitude 10° 19:44:11 10° 174° (S) 2,679 6.0 -7.2°
Sets 19:46:41 0° 174° (S) 3,629 6.6 -7.6°
